Bluefield, WV

8:43 PM EST on January 23, 2017 (GMT -0500)
Mercer County

Weather History for KBLF - July, 2013

Change the Weather History Date:

Saturday, July 27, 2013

  Actual Average Record
Temperature  
Mean Temperature 70 °F 73 °F  
Max Temperature 73 °F 81 °F 89 °F (1966)
Min Temperature 66 °F 65 °F 47 °F (1962)
Degree Days  
Heating Degree Days 0 0  
Month to date heating degree days 0 0  
Since 1 June heating degree days 0 22  
Since 1 July heating degree days 0 0  
Cooling Degree Days 5 8  
Month to date cooling degree days 266 216  
Year to date cooling degree days 571 473  
Since 1 June cooling degree days 457 382  
Growing Degree Days 20 (Base 50)    
Moisture  
Dew Point 62 °F    
Average Humidity 76    
Maximum Humidity 84    
Minimum Humidity 68    
Precipitation  
Precipitation 0.78 in 0.13 in 0.87 in (1992)
Month to date precipitation 3.74 3.68  
Year to date precipitation 27.10 24.64  
Snow  
Snow 0.00 in - - ()
Month to date snowfall 0.0  
Since 1 June snowfall 0.0  
Since 1 July snowfall 0.0  
Snow Depth 0.00 in    
Sea Level Pressure  
Sea Level Pressure 30.00 in    
Wind  
Wind Speed 5 mph (SSE)    
Max Wind Speed 13 mph    
Max Gust Speed 21 mph    
Visibility 8 miles    
Events Rain , Thunderstorm    
T = Trace of Precipitation, MM = Missing Value Source: NWS Daily Summary

Daily Weather History Graph

Daily Weather History Graph

Search for Another Location

Airport or City:

Trip Planner

Search our weather history database for the weather conditions in past years. The results will help you decide how hot, cold, wet, or windy it might be!

Date:

Astronomy

Jul. 27, 2013 Rise Set
Actual Time 6:25 AM EDT 8:36 PM EDT
Civil Twilight 5:56 AM EDT 9:05 PM EDT
Nautical Twilight 5:20 AM EDT 9:41 PM EDT
Astronomical Twilight 4:41 AM EDT 10:20 PM EDT
Moon 11:32 PM EDT (7/27) 11:55 AM EDT (7/27)
Length of Visible Light 15h 09m
Length of Day
14h 11m
Waning Gibbous, 71% of the Moon is Illuminated
Jul 27
Waning Gibbous
Jul 29
Last Quarter
Aug 6
New
Aug 14
First Quarter
Aug 20
Full

Hourly Weather History & Observations

Time (EDT) Temp. Dew Point Humidity Pressure Visibility Wind Dir Wind Speed Gust Speed Precip Events Conditions
12:52 AM 71.1 °F 63.0 °F 75% 29.99 in 10.0 mi SSE 4.6 mph - N/A   Mostly Cloudy
1:52 AM 71.1 °F 63.0 °F 75% 29.99 in 9.0 mi South 5.8 mph - 0.01 in Rain Light Rain
2:03 AM 69.8 °F 64.4 °F 83% 30.12 in 6.0 mi SW 4.6 mph - 0.02 in Rain Rain
2:14 AM 68.0 °F 64.4 °F 88% 30.11 in 3.0 mi WSW 5.8 mph - 0.07 in Rain Heavy Rain
2:28 AM 68.0 °F 64.4 °F 88% 30.10 in 4.0 mi SE 3.5 mph - 0.09 in Rain Light Rain
2:52 AM 69.1 °F 64.0 °F 84% 29.98 in 10.0 mi SE 6.9 mph - 0.10 in Rain Light Rain
3:39 AM 68.0 °F 62.6 °F 83% 30.09 in 10.0 mi SE 5.8 mph - 0.00 in   Overcast
3:52 AM 68.0 °F 63.0 °F 84% 29.96 in 10.0 mi Variable 3.5 mph - 0.00 in   Overcast
4:52 AM 69.1 °F 63.0 °F 81% 29.94 in 10.0 mi Variable 4.6 mph - N/A   Overcast
5:52 AM 69.1 °F 62.1 °F 78% 29.94 in 10.0 mi South 4.6 mph - N/A   Overcast
6:52 AM 68.0 °F 62.1 °F 81% 29.96 in 10.0 mi SSE 6.9 mph - N/A   Overcast
7:52 AM 68.0 °F 62.1 °F 81% 29.96 in 10.0 mi SSE 6.9 mph - 0.01 in Rain Light Rain
8:25 AM 68.0 °F 62.6 °F 83% 30.09 in 10.0 mi South 4.6 mph - 0.00 in   Overcast
8:41 AM 66.2 °F 62.6 °F 88% 30.08 in 2.0 mi SSE 8.1 mph 16.1 mph 0.10 in Rain Heavy Rain
8:52 AM 68.0 °F 62.1 °F 81% 29.97 in 10.0 mi Variable 6.9 mph - 0.10 in Rain Light Rain
9:52 AM 68.0 °F 61.0 °F 78% 29.97 in 10.0 mi SSE 5.8 mph - N/A   Overcast
10:24 AM 69.8 °F 60.8 °F 73% 30.08 in 10.0 mi SSE 4.6 mph 18.4 mph N/A   Overcast
10:41 AM 69.8 °F 60.8 °F 73% 30.07 in 10.0 mi South 8.1 mph 16.1 mph N/A   Overcast
10:52 AM 69.1 °F 61.0 °F 75% 29.96 in 10.0 mi Variable 5.8 mph - N/A   Mostly Cloudy
11:00 AM 69.8 °F 62.6 °F 78% 30.08 in 10.0 mi Variable 6.9 mph - N/A Thunderstorm Overcast
11:38 AM 68.0 °F 62.6 °F 83% 30.09 in 7.0 mi Variable 6.9 mph - 0.04 in Rain Light Rain
11:52 AM 66.9 °F 62.1 °F 84% 29.99 in 4.0 mi South 9.2 mph - 0.09 in Rain Rain
12:52 PM 69.1 °F 61.0 °F 75% 29.96 in 10.0 mi East 5.8 mph - 0.07 in   Overcast
1:52 PM 73.0 °F 62.1 °F 68% 29.94 in 10.0 mi Variable 3.5 mph - 0.00 in   Scattered Clouds
2:52 PM 73.0 °F 63.0 °F 71% 29.94 in 10.0 mi ESE 5.8 mph - N/A   Scattered Clouds
3:00 PM 71.6 °F 62.6 °F 73% 30.05 in 10.0 mi Variable 5.8 mph - N/A   Mostly Cloudy
3:05 PM 69.8 °F 59.0 °F 68% 30.04 in 1.5 mi Variable 5.8 mph - 0.11 in Rain Rain
3:12 PM 66.2 °F 59.0 °F 78% 30.04 in 1.0 mi Calm Calm - 0.16 in Rain Light Rain
3:15 PM 68.0 °F 57.2 °F 68% 30.04 in 2.0 mi Calm Calm - 0.18 in Rain Light Rain
3:27 PM 66.2 °F 60.8 °F 83% 30.04 in 1.2 mi SSE 4.6 mph - 0.32 in Rain Heavy Rain
3:33 PM 66.2 °F 60.8 °F 83% 30.03 in 3.0 mi ESE 4.6 mph - 0.32 in Rain Light Rain
3:52 PM 66.9 °F 62.1 °F 84% 29.94 in 3.0 mi SSE 4.6 mph - 0.36 in Rain Light Rain
4:52 PM 68.0 °F 62.1 °F 81% 29.93 in 10.0 mi South 3.5 mph - 0.04 in   Overcast
5:52 PM 71.1 °F 63.0 °F 75% 29.91 in 10.0 mi SE 3.5 mph - 0.00 in   Mostly Cloudy
6:52 PM 69.1 °F 62.1 °F 78% 29.92 in 10.0 mi Calm Calm - N/A   Overcast
7:52 PM 68.0 °F 62.1 °F 81% 29.93 in 10.0 mi ESE 4.6 mph - N/A   Mostly Cloudy
8:52 PM 66.9 °F 60.1 °F 79% 29.94 in 10.0 mi Calm Calm - N/A   Mostly Cloudy
9:52 PM 66.9 °F 61.0 °F 81% 29.94 in 10.0 mi SE 4.6 mph - N/A   Partly Cloudy
10:52 PM 68.0 °F 61.0 °F 78% 29.94 in 10.0 mi South 9.2 mph - N/A   Mostly Cloudy
11:52 PM 66.9 °F 61.0 °F 81% 29.93 in 10.0 mi South 5.8 mph - N/A   Mostly Cloudy